Home   Weather   Armidale   Past weeks

Flag for Australia Past Weather in Armidale, New South Wales, Australia — Yesterday and Last 2 Weeks

Now
52 °F

Cool.


Feels Like: 48 °F
Forecast: 49 / 65 °F
Wind: 13 mph from East

Location: Armidale Airport Aws

Current Time: Nov 21, 2017 at 2:52:21 am

Latest Report: Nov 21, 2017 at 1:00 am


Visibility: N/A

Pressure: 30.10 "Hg (26.75 "Hg at 981m altitude)

Humidity: 100%

Dew Point: 52 °F

Location of ArmidaleLocation

Past Weather in Armidale — Graph

°F

Armidale Temperature Yesterday

Maximum temperature yesterday: 65 °F (at 4:00 pm)
Minimum temperature yesterday: 51 °F (at 6:00 am)
Average temperature yesterday: 56 °F

High & Low Weather Summary for the Past Weeks

 TemperatureHumidityPressure
High71 °F (Nov 6, 1:00 pm)100% (Nov 6, 1:00 am)30.24 "Hg (Nov 6, 1:00 am)
Low41 °F (Nov 9, 6:00 am)38% (Nov 10, 4:00 pm)29.66 "Hg (Nov 6, 4:00 pm)
Average55 °F83%30.04 "Hg
* Reported Nov 6 1:00 am — Nov 21 1:00 am, Armidale. Weather by CustomWeather, © 2017

Note: Actual official high and low records may vary slightly from our data, if they occured in-between our weather recording intervals... More about our weather records

Advertising

Armidale Weather History for the Previous 24 Hours

Scroll right to see more
 ConditionsComfort  
Time TempWeatherWind HumidityBarometerVisibility
1:00 am
Tue, Nov 21
52 °FCool.13 mph100%30.10 "HgN/A
12:00 am53 °FOvercast.9 mph97%30.11 "HgN/A
10:00 pm
Mon, Nov 20
54 °FCool.10 mph92%30.11 "HgN/A
9:00 pm55 °FOvercast.10 mph89%30.12 "HgN/A
7:00 pm60 °FCool.15 mph68%30.09 "HgN/A
6:00 pm63 °FPassing clouds.15 mph56%30.07 "HgN/A
4:00 pm65 °FMild.17 mph54%30.07 "HgN/A
3:00 pm64 °FOvercast.15 mph60%30.09 "HgN/A
1:00 pm63 °FMild.16 mph67%30.13 "HgN/A
12:00 pm61 °FOvercast.17 mph77%30.14 "HgN/A
10:00 am56 °FCool.18 mph91%30.14 "HgN/A
9:00 am54 °FLow clouds.20 mph100%30.12 "HgN/A
7:00 am51 °FCool.14 mph100%30.08 "HgN/A
6:00 am51 °FLow clouds.9 mph100%30.07 "HgN/A
4:00 am51 °FCool.13 mph100%30.05 "HgN/A
3:00 am51 °FLow clouds.14 mph100%30.05 "Hg3 mi
Weather by CustomWeather, © 2017

See weather overview